Location: Las Vegas
(36.1750°N, 115.1360°W)
Time: 18:04:23
(UTC-07:00)

Envisat - Visible Passes

Search period start: 17 October 2019 00:00
Search period end: 27 October 2019 00:00
Orbit: 764 x 766 km, 98.1° (Epoch: 17 October)

Date Brightness Start Highest point End Pass type
(mag) Time Alt. Az. Time Alt. Az. Time Alt. Az.
17 Oct 6.7 06:13:20 10° ENE 06:14:49 11° E 06:16:17 10° ESE visible
17 Oct 3.3 19:00:54 10° S 19:05:56 70° WSW 19:11:01 10° NNW visible
18 Oct 3.2 18:24:23 10° SSE 18:29:14 50° ENE 18:34:09 10° N visible
18 Oct 5.9 20:05:25 10° SW 20:08:30 16° W 20:11:37 10° NW visible
19 Oct 4.5 19:26:49 10° SSW 19:31:30 38° W 19:36:13 10° NNW visible
20 Oct 3.0 18:49:36 10° SSE 18:54:41 90° WNW 18:59:47 10° NNW visible
21 Oct 3.5 18:13:23 10° SE 18:18:02 39° ENE 18:22:44 10° N visible
21 Oct 5.5 19:53:23 10° SW 19:57:09 21° W 20:00:56 10° NW visible
22 Oct 6.2 06:26:02 10° NE 06:29:12 16° E 06:32:22 10° SE visible
22 Oct 4.0 19:15:18 10° S 19:20:12 49° W 19:25:07 10° NNW visible
23 Oct 2.9 18:38:23 10° SSE 18:43:26 71° ENE 18:48:30 10° N visible
23 Oct 6.2 20:21:35 10° WSW 20:22:54 11° W 20:24:13 10° WNW visible
24 Oct 5.1 19:41:34 10° SSW 19:45:49 27° W 19:50:05 10° NW visible
25 Oct 6.5 06:15:42 10° ENE 06:17:50 13° E 06:19:58 10° ESE visible
25 Oct 3.5 19:03:54 10° S 19:08:55 64° W 19:13:58 10° NNW visible
26 Oct 3.1 18:27:16 10° SSE 18:32:12 55° ENE 18:37:09 10° N visible
26 Oct 6.0 20:08:46 10° SW 20:11:31 15° W 20:14:17 10° WNW visible
